• In Portugal
  • List of Countries
  • For 7 days
  • Water Temperature
  • Satellite Maps
  • Weather Map
  • Weather Widgets
  • user-avatar
    Login

    Hourly Weather Konya

    Today, 18 June, Monday

    Time Temperature Precipitation Wind Pressure Humidity
    00:00 +19°C° 0 mm 2 mps 669 mmHg 63%
    01:00 +18°C° 0 mm 2 mps 668 mmHg 66%
    02:00 +18°C° 0 mm 1 mps 668 mmHg 69%
    03:00 +18°C° 0 mm 1 mps 668 mmHg 71%
    04:00 +18°C° 0 mm 1 mps 668 mmHg 73%
    05:00 +18°C° 0 mm 1 mps 668 mmHg 75%
    06:00 +19°C° 0.1 mm 1 mps 668 mmHg 69%
    07:00 +20°C° 0.1 mm 1 mps 669 mmHg 63%
    08:00 +21°C° 0.1 mm 2 mps 669 mmHg 57%
    09:00 +23°C° 0.6 mm 1 mps 669 mmHg 53%
    10:00 +24°C° 0.6 mm 1 mps 669 mmHg 49%
    11:00 +25°C° 0.6 mm 1 mps 669 mmHg 45%
    12:00 +25°C° 0.5 mm 1 mps 669 mmHg 43%
    13:00 +26°C° 0.5 mm 1 mps 669 mmHg 41%
    14:00 +26°C° 0.5 mm 1 mps 669 mmHg 40%
    15:00 +26°C° 0.2 mm 1 mps 669 mmHg 39%
    16:00 +26°C° 0.2 mm 2 mps 669 mmHg 39%
    17:00 +26°C° 0.2 mm 2 mps 669 mmHg 39%
    18:00 +25°C° 0.1 mm 2 mps 669 mmHg 42%
    19:00 +25°C° 0.1 mm 2 mps 669 mmHg 46%
    20:00 +24°C° 0.1 mm 2 mps 669 mmHg 49%
    21:00 +23°C° 0.1 mm 2 mps 669 mmHg 52%
    22:00 +22°C° 0.1 mm 1 mps 669 mmHg 55%
    23:00 +22°C° 0.1 mm 1 mps 669 mmHg 58%

    Tomorrow, 19 June, Tuesday

    Time Temperature Precipitation Wind Pressure Humidity
    00:00 +21°C° 0 mm 1 mps 669 mmHg 59%
    01:00 +20°C° 0 mm 1 mps 669 mmHg 61%
    02:00 +20°C° 0 mm 1 mps 669 mmHg 63%
    03:00 +20°C° 0 mm 1 mps 669 mmHg 65%
    04:00 +19°C° 0 mm 1 mps 669 mmHg 66%
    05:00 +19°C° 0 mm 1 mps 669 mmHg 68%
    06:00 +21°C° 0 mm 1 mps 669 mmHg 62%
    07:00 +21°C° 0 mm 2 mps 670 mmHg 57%
    08:00 +24°C° 0 mm 2 mps 670 mmHg 51%
    09:00 +25°C° 0.4 mm 2 mps 670 mmHg 48%
    10:00 +26°C° 0.4 mm 2 mps 671 mmHg 44%
    11:00 +27°C° 0.4 mm 2 mps 671 mmHg 41%
    12:00 +27°C° 0.2 mm 2 mps 671 mmHg 39%
    13:00 +28°C° 0.2 mm 2 mps 671 mmHg 38%
    14:00 +28°C° 0.2 mm 2 mps 671 mmHg 36%
    15:00 +27°C° 1.2 mm 2 mps 670 mmHg 40%
    16:00 +26°C° 1.2 mm 2 mps 670 mmHg 44%
    17:00 +26°C° 1.2 mm 3 mps 670 mmHg 49%
    18:00 +24°C° 1.7 mm 3 mps 670 mmHg 54%
    19:00 +22°C° 1.7 mm 3 mps 670 mmHg 60%
    20:00 +21°C° 1.7 mm 3 mps 670 mmHg 66%
    21:00 +20°C° 0.2 mm 3 mps 670 mmHg 69%
    22:00 +19°C° 0.2 mm 3 mps 670 mmHg 71%
    23:00 +19°C° 0.2 mm 3 mps 671 mmHg 74%

    Day after tomorrow, 20 June, Wednesday

    Time Temperature Precipitation Wind Pressure Humidity
    00:00 +18°C° 0.1 mm 2 mps 670 mmHg 75%
    01:00 +18°C° 0.1 mm 2 mps 670 mmHg 77%
    02:00 +18°C° 0.1 mm 1 mps 670 mmHg 78%
    03:00 +18°C° 0.1 mm 1 mps 670 mmHg 78%
    04:00 +18°C° 0.1 mm 1 mps 670 mmHg 78%
    05:00 +18°C° 0.1 mm 1 mps 670 mmHg 77%
    06:00 +19°C° 0.2 mm 1 mps 671 mmHg 71%
    07:00 +21°C° 0.2 mm 1 mps 671 mmHg 64%
    08:00 +22°C° 0.2 mm 1 mps 672 mmHg 58%
    09:00 +24°C° 0.2 mm 1 mps 672 mmHg 53%
    10:00 +25°C° 0.2 mm 1 mps 672 mmHg 47%
    11:00 +24°C° 0.2 mm 0 mps 673 mmHg 42%
    12:00 +27°C° 0 mm 1 mps 673 mmHg 40%
    13:00 +28°C° 0 mm 1 mps 673 mmHg 37%
    14:00 +28°C° 0 mm 1 mps 673 mmHg 34%
    15:00 +28°C° 0 mm 2 mps 672 mmHg 35%
    16:00 +28°C° 0 mm 2 mps 672 mmHg 37%
    17:00 +28°C° 0 mm 3 mps 672 mmHg 38%
    18:00 +27°C° 0.2 mm 2 mps 672 mmHg 42%
    19:00 +26°C° 0.2 mm 2 mps 672 mmHg 47%
    20:00 +25°C° 0.2 mm 2 mps 672 mmHg 51%
    21:00 +24°C° 0.8 mm 1 mps 672 mmHg 55%
    22:00 +23°C° 0.8 mm 1 mps 672 mmHg 58%
    23:00 +23°C° 0.8 mm 1 mps 672 mmHg 62%

    21 June, Thursday

    Time Temperature Precipitation Wind Pressure Humidity
    00:00 +22°C° 0.7 mm 1 mps 672 mmHg 64%
    01:00 +22°C° 0.7 mm 1 mps 672 mmHg 65%
    02:00 +20°C° 0.7 mm 2 mps 672 mmHg 67%
    03:00 +20°C° 0.1 mm 2 mps 672 mmHg 70%
    04:00 +21°C° 0.1 mm 1 mps 672 mmHg 72%
    05:00 +20°C° 0.1 mm 1 mps 672 mmHg 75%
    06:00 +21°C° 0.3 mm 1 mps 672 mmHg 69%
    07:00 +23°C° 0.3 mm 1 mps 672 mmHg 63%
    08:00 +24°C° 0.3 mm 1 mps 672 mmHg 57%
    09:00 +25°C° 0.4 mm 1 mps 673 mmHg 52%
    10:00 +26°C° 0.4 mm 1 mps 673 mmHg 48%
    11:00 +27°C° 0.4 mm 1 mps 673 mmHg 44%
    12:00 +27°C° 0.1 mm 1 mps 673 mmHg 41%
    13:00 +28°C° 0.1 mm 1 mps 672 mmHg 39%
    14:00 +28°C° 0.1 mm 1 mps 672 mmHg 37%
    15:00 +28°C° 0 mm 2 mps 672 mmHg 37%
    16:00 +28°C° 0 mm 2 mps 672 mmHg 38%
    17:00 +28°C° 0 mm 2 mps 672 mmHg 39%
    18:00 +27°C° 0 mm 2 mps 672 mmHg 42%
    19:00 +26°C° 0 mm 2 mps 672 mmHg 46%
    20:00 +25°C° 0 mm 2 mps 672 mmHg 50%
    21:00 +24°C° 0.4 mm 2 mps 672 mmHg 55%
    22:00 +23°C° 0.4 mm 2 mps 671 mmHg 60%
    23:00 +21°C° 0.4 mm 2 mps 671 mmHg 66%

    22 June, Friday

    Time Temperature Precipitation Wind Pressure Humidity
    00:00 +20°C° 0.4 mm 2 mps 671 mmHg 68%
    01:00 +20°C° 0.4 mm 2 mps 671 mmHg 71%
    02:00 +20°C° 0.4 mm 1 mps 670 mmHg 73%
    03:00 +20°C° 0.1 mm 1 mps 670 mmHg 74%
    04:00 +20°C° 0.1 mm 1 mps 670 mmHg 75%
    05:00 +19°C° 0.1 mm 1 mps 670 mmHg 76%
    06:00 +21°C° 0.1 mm 1 mps 671 mmHg 70%
    07:00 +22°C° 0.1 mm 1 mps 671 mmHg 63%
    08:00 +24°C° 0.1 mm 1 mps 671 mmHg 56%
    09:00 +25°C° 0.1 mm 1 mps 671 mmHg 51%
    10:00 +26°C° 0.1 mm 1 mps 671 mmHg 47%
    11:00 +27°C° 0.1 mm 1 mps 671 mmHg 42%
    12:00 +27°C° 0 mm 1 mps 671 mmHg 40%
    13:00 +28°C° 0 mm 1 mps 671 mmHg 38%
    14:00 +28°C° 0 mm 1 mps 670 mmHg 36%
    15:00 +28°C° 0 mm 2 mps 670 mmHg 37%
    16:00 +28°C° 0 mm 2 mps 670 mmHg 38%
    17:00 +28°C° 0 mm 3 mps 670 mmHg 39%
    18:00 +27°C° 0.1 mm 3 mps 670 mmHg 42%
    19:00 +26°C° 0.1 mm 3 mps 671 mmHg 46%
    20:00 +25°C° 0.1 mm 3 mps 671 mmHg 50%
    21:00 +24°C° 0.1 mm 3 mps 671 mmHg 54%
    22:00 +22°C° 0.1 mm 3 mps 671 mmHg 58%
    23:00 +21°C° 0.1 mm 3 mps 671 mmHg 62%

    23 June, Saturday

    Time Temperature Precipitation Wind Pressure Humidity
    00:00 +20°C° 0 mm 3 mps 671 mmHg 65%
    01:00 +20°C° 0 mm 3 mps 670 mmHg 68%
    02:00 +19°C° 0 mm 2 mps 670 mmHg 71%
    03:00 +19°C° 0 mm 2 mps 670 mmHg 74%
    04:00 +19°C° 0 mm 2 mps 670 mmHg 76%
    05:00 +18°C° 0 mm 2 mps 671 mmHg 78%
    06:00 +19°C° 0 mm 2 mps 671 mmHg 72%
    07:00 +21°C° 0 mm 2 mps 671 mmHg 66%
    08:00 +23°C° 0 mm 2 mps 672 mmHg 60%
    09:00 +24°C° 0 mm 2 mps 672 mmHg 56%
    10:00 +25°C° 0 mm 2 mps 672 mmHg 52%
    11:00 +26°C° 0 mm 1 mps 672 mmHg 47%
    12:00 +27°C° 0 mm 1 mps 672 mmHg 45%
    13:00 +28°C° 0 mm 1 mps 672 mmHg 42%
    14:00 +29°C° 0 mm 2 mps 672 mmHg 39%
    15:00 +28°C° 0 mm 2 mps 672 mmHg 40%
    16:00 +28°C° 0 mm 2 mps 671 mmHg 40%
    17:00 +28°C° 0 mm 3 mps 671 mmHg 40%
    18:00 +27°C° 0 mm 3 mps 671 mmHg 43%
    19:00 +26°C° 0 mm 3 mps 671 mmHg 45%
    20:00 +25°C° 0 mm 3 mps 672 mmHg 48%
    21:00 +25°C° 0 mm 3 mps 672 mmHg 50%
    22:00 +24°C° 0 mm 3 mps 672 mmHg 52%
    23:00 +22°C° 0 mm 3 mps 672 mmHg 54%
    Show more